Regional Weather Roundup
Issued by NWS

Home | Current Version | Previous Version | Graphics & Text | Print | Product List | Glossary On
Versions: 1 2 3 4 5 6 7 8 9 10 11 12 13 14 15 16 17 18 19 20 21 22 23 24 25 26 27 28 29 30 31 32 33 34 35 36 37 38 39 40 41 42 43 44 45 46 47 48 49 50
000
ASUS43 KFSD 281310
RWRSD

WEATHER ROUNDUP FOR SOUTH DAKOTA
NATIONAL WEATHER SERVICE SIOUX FALLS SD
800 AM CDT SAT MAY 28 2016

NOTE: "FAIR" INDICATES FEW OR NO CLOUDS BELOW 12,000 FEET WITH NO
SIGNIFICANT WEATHER AND/OR OBSTRUCTIONS TO VISIBILITY.


SDZ001>005-009-010-012>017-281400-
NORTHWEST AND NORTH CENTRAL SOUTH DAKOTA

CITY           SKY/WX    TMP DP  RH WIND       PRES   REMARKS
BUFFALO          N/A     53  48  83 VRB3      29.82R
FAITH            N/A     50  46  86 NW7       29.87R
MOBRIDGE       MOSUNNY   58  52  80 NW7       29.81R
$$

SDZ012>016-024>037-041>051-057-063-072>074-281400-
SOUTHWEST AND SOUTH CENTRAL SOUTH DAKOTA

CITY           SKY/WX    TMP DP  RH WIND       PRES   REMARKS
RAPID CTY ARPT SUNNY     54  48  80 W6        29.90R
PIERRE         CLOUDY    58  53  84 NW8       29.81R
CUSTER         SUNNY     49  42  77 W5        29.95R
ELLSWORTH AFB  SUNNY     53  49  86 W5        29.89R
PHILIP         MOSUNNY   47  46  97 W8        29.86R
PINE RIDGE     SUNNY     43  41  93 CALM      29.90S
WINNER         CLOUDY    58  54  86 NW6       29.82R
$$

SDZ004>011-016>023-039-040-281400-
NORTHEAST SOUTH DAKOTA

CITY           SKY/WX    TMP DP  RH WIND       PRES   REMARKS
ABERDEEN       CLOUDY    61  58  90 NE7       29.80R FOG
WATERTOWN      CLOUDY    60  58  92 NE9       29.78R FOG
BROOKINGS      LGT RAIN  60  59  96 E7        29.76R
SISSETON         N/A     61  57  87 E6        29.79R
$$

SDZ017-020-022-023-036>040-048>070-281400-
SOUTHEAST SOUTH DAKOTA

CITY           SKY/WX    TMP DP  RH WIND       PRES   REMARKS
SIOUX FALLS    RAIN      61  60  97 CALM      29.74R FOG
HURON          CLOUDY    60  58  92 N5        29.77R
CHAMBERLAIN    CLOUDY    61  59  94 NW5       29.81R
MITCHELL       LGT RAIN  60  59  96 NW10      29.77R FOG
YANKTON        PTSUNNY   61  57  88 NW12      29.72S
$$

ABBREVIATIONS USED IN REMARKS
   TC - TEMPERATURE IN CELSIUS
  WCI - WIND CHILL INDEX
   HX - HEAT INDEX
  VSB - VISIBILITY





USA.gov is the U.S. government's official web portal to all federal, state and local government web resources and services.